Tracking 17828 objects as of 30-July-2016
HD Live streaming from Space Station
objects crossing your sky now

IRIDIUM 33 DEB

Track IRIDIUM 33 DEB now!
10-day predictions


NORAD ID: 33869
Int'l Code: 1997-051AN
Perigee: 718.1 km
Apogee: 833.9 km
Inclination: 86.4 °
Period: 100.2 minutes
Semi major axis: 7147 km
RCS: 0.08 m2 (small)
Launch date: September 14, 1997
Source: United States (US)
Launch site: TYURATAM MISSILE AND SPACE COMPLEX (TTMTR)

Note: This is SATELLITE DEBRIS
Your satellite tracking list
Your tracking list is empty





NASA's NSSDC Master Catalog

Two Line Element Set (TLE):
1 33869U 97051AN  16211.71900574  .00001402  00000-0  45072-3 0  9993
2 33869  86.3641  77.7267 0081011 343.0922  16.7577 14.36868144387308
Source of the keplerian elements: AFSPC

N2YO: 876